Previsão horária em Abalos

Hoje, 11 Abril, Domingo

Tempo Temperatura Precipitação Vento Pressão Humidade
00:00 +10°C° 0.1 mm 1 m/s 710 mmHg 92%
01:00 +10°C° 0.4 mm 1 m/s 710 mmHg 93%
02:00 +10°C° 0.4 mm 1 m/s 710 mmHg 94%
03:00 +10°C° 0.4 mm 1 m/s 710 mmHg 94%
04:00 +10°C° 0.9 mm 1 m/s 711 mmHg 94%
05:00 +9°C° 0.9 mm 2 m/s 711 mmHg 94%
06:00 +8°C° 0.9 mm 2 m/s 711 mmHg 94%
07:00 +8°C° 2.4 mm 3 m/s 712 mmHg 93%
08:00 +7°C° 2.4 mm 3 m/s 713 mmHg 92%
09:00 +7°C° 2.4 mm 3 m/s 714 mmHg 91%
10:00 +7°C° 0.7 mm 3 m/s 714 mmHg 91%
11:00 +7°C° 0.7 mm 2 m/s 715 mmHg 90%
12:00 +7°C° 0.7 mm 2 m/s 715 mmHg 89%
13:00 +7°C° 0.2 mm 2 m/s 715 mmHg 90%
14:00 +7°C° 0.2 mm 2 m/s 715 mmHg 90%
15:00 +7°C° 0.2 mm 2 m/s 715 mmHg 91%
16:00 +5°C° 0.3 mm 3 m/s 716 mmHg 91%
17:00 +5°C° 0.3 mm 3 m/s 717 mmHg 92%
18:00 +4°C° 0.3 mm 3 m/s 718 mmHg 93%
19:00 +4°C° 0.2 mm 3 m/s 719 mmHg 91%
20:00 +3°C° 0.2 mm 3 m/s 719 mmHg 90%
21:00 +3°C° 0.2 mm 3 m/s 720 mmHg 88%
22:00 +2°C° 0.1 mm 3 m/s 720 mmHg 88%
23:00 +2°C° 0.1 mm 2 m/s 721 mmHg 88%

Amanhã, 12 Abril, Segunda-feira

Tempo Temperatura Precipitação Vento Pressão Humidade
00:00 +2°C° 0.1 mm 2 m/s 721 mmHg 88%
01:00 +1°C° 0 mm 2 m/s 721 mmHg 88%
02:00 +1°C° 0 mm 2 m/s 721 mmHg 87%
03:00 +1°C° 0 mm 2 m/s 721 mmHg 87%
04:00 +1°C° 0 mm 2 m/s 721 mmHg 86%
05:00 +2°C° 0 mm 2 m/s 722 mmHg 86%
06:00 +2°C° 0 mm 2 m/s 722 mmHg 85%
07:00 +3°C° 0 mm 2 m/s 722 mmHg 83%
08:00 +4°C° 0 mm 2 m/s 722 mmHg 82%
09:00 +4°C° 0 mm 2 m/s 723 mmHg 80%
10:00 +5°C° 0 mm 2 m/s 723 mmHg 75%
11:00 +5°C° 0 mm 3 m/s 723 mmHg 69%
12:00 +7°C° 0 mm 3 m/s 722 mmHg 64%
13:00 +8°C° 0 mm 3 m/s 722 mmHg 61%
14:00 +9°C° 0 mm 3 m/s 722 mmHg 58%
15:00 +9°C° 0 mm 3 m/s 721 mmHg 55%
16:00 +9°C° 0 mm 3 m/s 722 mmHg 58%
17:00 +8°C° 0 mm 3 m/s 722 mmHg 61%
18:00 +7°C° 0 mm 2 m/s 722 mmHg 65%
19:00 +5°C° 0 mm 2 m/s 722 mmHg 71%
20:00 +4°C° 0 mm 2 m/s 723 mmHg 77%
21:00 +3°C° 0 mm 1 m/s 723 mmHg 84%
22:00 +3°C° 0 mm 1 m/s 723 mmHg 85%
23:00 +2°C° 0 mm 1 m/s 723 mmHg 87%

Depois de amanhã, 13 Abril, Terça-feira

Tempo Temperatura Precipitação Vento Pressão Humidade
00:00 +2°C° 0 mm 1 m/s 723 mmHg 89%
01:00 +2°C° 0 mm 1 m/s 723 mmHg 89%
02:00 +2°C° 0 mm 1 m/s 722 mmHg 89%
03:00 +2°C° 0 mm 1 m/s 722 mmHg 88%
04:00 +2°C° 0 mm 1 m/s 722 mmHg 87%
05:00 +2°C° 0 mm 1 m/s 722 mmHg 85%
06:00 +2°C° 0 mm 1 m/s 722 mmHg 84%
07:00 +4°C° 0 mm 1 m/s 722 mmHg 73%
08:00 +7°C° 0 mm 1 m/s 722 mmHg 63%
09:00 +9°C° 0 mm 1 m/s 722 mmHg 53%
10:00 +10°C° 0 mm 2 m/s 722 mmHg 47%
11:00 +12°C° 0 mm 2 m/s 721 mmHg 42%
12:00 +14°C° 0 mm 2 m/s 721 mmHg 37%
13:00 +14°C° 0 mm 2 m/s 720 mmHg 37%
14:00 +15°C° 0 mm 2 m/s 720 mmHg 37%
15:00 +15°C° 0 mm 2 m/s 719 mmHg 37%
16:00 +14°C° 0 mm 2 m/s 719 mmHg 44%
17:00 +13°C° 0 mm 2 m/s 719 mmHg 52%
18:00 +12°C° 0 mm 1 m/s 719 mmHg 60%
19:00 +10°C° 0 mm 1 m/s 720 mmHg 63%
20:00 +9°C° 0 mm 1 m/s 720 mmHg 67%
21:00 +7°C° 0 mm 1 m/s 720 mmHg 71%
22:00 +7°C° 0 mm 1 m/s 720 mmHg 73%
23:00 +6°C° 0 mm 1 m/s 720 mmHg 76%

14 Abril, Quarta-feira

Tempo Temperatura Precipitação Vento Pressão Humidade
00:00 +5°C° 0 mm 1 m/s 720 mmHg 79%
01:00 +5°C° 0 mm 1 m/s 719 mmHg 79%
02:00 +5°C° 0 mm 1 m/s 719 mmHg 79%
03:00 +4°C° 0 mm 1 m/s 719 mmHg 80%
04:00 +4°C° 0 mm 1 m/s 719 mmHg 79%
05:00 +3°C° 0 mm 0 m/s 719 mmHg 78%
06:00 +3°C° 0 mm 0 m/s 719 mmHg 78%
07:00 +6°C° 0 mm 1 m/s 719 mmHg 70%
08:00 +9°C° 0 mm 1 m/s 719 mmHg 62%
09:00 +11°C° 0 mm 1 m/s 719 mmHg 54%
10:00 +13°C° 0 mm 1 m/s 718 mmHg 50%
11:00 +14°C° 0 mm 2 m/s 718 mmHg 45%
12:00 +16°C° 0 mm 2 m/s 718 mmHg 41%
13:00 +16°C° 0 mm 2 m/s 717 mmHg 41%
14:00 +16°C° 0 mm 3 m/s 717 mmHg 40%
15:00 +17°C° 0 mm 3 m/s 716 mmHg 40%
16:00 +14°C° 0 mm 3 m/s 716 mmHg 47%
17:00 +13°C° 0 mm 3 m/s 716 mmHg 54%
18:00 +11°C° 0 mm 3 m/s 716 mmHg 61%
19:00 +10°C° 0 mm 2 m/s 717 mmHg 66%
20:00 +8°C° 0 mm 2 m/s 717 mmHg 72%
21:00 +7°C° 0 mm 1 m/s 717 mmHg 77%
22:00 +6°C° 0 mm 1 m/s 717 mmHg 78%
23:00 +6°C° 0 mm 1 m/s 717 mmHg 79%

15 Abril, Quinta-feira

Tempo Temperatura Precipitação Vento Pressão Humidade
00:00 +5°C° 0 mm 1 m/s 717 mmHg 80%
01:00 +5°C° 0 mm 1 m/s 717 mmHg 80%
02:00 +4°C° 0 mm 1 m/s 717 mmHg 80%
03:00 +3°C° 0 mm 0 m/s 717 mmHg 80%
04:00 +3°C° 0 mm 0 m/s 717 mmHg 79%
05:00 +3°C° 0 mm 0 m/s 717 mmHg 78%
06:00 +3°C° 0 mm 0 m/s 717 mmHg 77%
07:00 +6°C° 0 mm 1 m/s 717 mmHg 73%
08:00 +7°C° 0 mm 1 m/s 717 mmHg 69%
09:00 +9°C° 0 mm 1 m/s 717 mmHg 65%
10:00 +9°C° 0 mm 2 m/s 717 mmHg 63%
11:00 +12°C° 0 mm 2 m/s 717 mmHg 61%
12:00 +12°C° 0 mm 3 m/s 716 mmHg 58%
13:00 +13°C° 0 mm 3 m/s 716 mmHg 54%
14:00 +13°C° 0 mm 4 m/s 715 mmHg 51%
15:00 +14°C° 0 mm 4 m/s 715 mmHg 47%
16:00 +12°C° 0 mm 4 m/s 715 mmHg 50%
17:00 +11°C° 0 mm 4 m/s 715 mmHg 53%
18:00 +8°C° 0 mm 4 m/s 715 mmHg 56%
19:00 +8°C° 0 mm 3 m/s 716 mmHg 61%
20:00 +5°C° 0 mm 3 m/s 716 mmHg 67%
21:00 +4°C° 0 mm 2 m/s 716 mmHg 72%
22:00 +4°C° 0 mm 2 m/s 716 mmHg 75%
23:00 +3°C° 0 mm 2 m/s 716 mmHg 77%

16 Abril, Sexta-feira

Tempo Temperatura Precipitação Vento Pressão Humidade
00:00 +4°C° 0 mm 1 m/s 716 mmHg 80%
01:00 +3°C° 0 mm 1 m/s 716 mmHg 81%
02:00 +3°C° 0 mm 1 m/s 716 mmHg 82%
03:00 +3°C° 0 mm 1 m/s 715 mmHg 83%
04:00 +3°C° 0 mm 1 m/s 715 mmHg 82%
05:00 +3°C° 0 mm 1 m/s 715 mmHg 81%
06:00 +3°C° 0 mm 1 m/s 715 mmHg 80%
07:00 +4°C° 0 mm 1 m/s 716 mmHg 74%
08:00 +6°C° 0 mm 1 m/s 716 mmHg 68%
09:00 +7°C° 0 mm 1 m/s 716 mmHg 62%
10:00 +8°C° 0 mm 2 m/s 715 mmHg 59%
11:00 +9°C° 0 mm 2 m/s 715 mmHg 55%
12:00 +10°C° 0 mm 2 m/s 715 mmHg 52%
13:00 +12°C° 0 mm 2 m/s 714 mmHg 50%
14:00 +12°C° 0 mm 2 m/s 714 mmHg 48%
15:00 +13°C° 0 mm 2 m/s 713 mmHg 47%
16:00 +11°C° 0 mm 3 m/s 714 mmHg 51%
17:00 +10°C° 0 mm 3 m/s 714 mmHg 56%
18:00 +9°C° 0 mm 3 m/s 714 mmHg 60%
19:00 +7°C° 0 mm 2 m/s 714 mmHg 64%
20:00 +6°C° 0 mm 2 m/s 715 mmHg 68%
21:00 +5°C° 0 mm 1 m/s 715 mmHg 72%
22:00 +5°C° 0 mm 1 m/s 715 mmHg 74%
23:00 +4°C° 0 mm 1 m/s 715 mmHg 76%
Mostrar mais